Theta_e
327 327 330 333 332 334 328 325 326 329 326 329 330 324 326 323 327 325 324 326 326 324 326 323 323 324 322 323 320 323 321 321 318 314 312 312 309 309 312 310 309 309 307 309 308 304 302 300 303 309 311 311 312 312 312 313 317 317 316 315 315 316 316
326 328 331 331 335 330 328 328 329 324 326 329 330 327 326 327 326 325 328 322 327 325 324 321 322 321 321 322 320 320 319 318 322 318 315 312 312 310 309 308 308 307 306 308 308 308 304 302 302 303 305 309 310 310 311 314 318 317 315 315 316 315 316
329 330 328 330 330 329 327 327 328 327 327 332 329 329 326 323 323 329 322 321 324 325 325 321 321 321 320 321 320 319 319 319 320 319 315 315 315 313 311 309 308 306 305 305 306 306 307 307 302 302 304 304 303 306 310 310 318 318 317 318 315 314 314
324 328 330 328 327 329 327 327 329 328 331 329 330 327 329 323 329 328 325 322 322 326 323 319 321 319 319 320 320 320 321 316 319 317 316 316 315 314 312 311 309 306 305 304 304 306 306 304 304 304 305 306 305 304 307 310 317 318 316 315 314 313 314
323 322 326 322 321 321 326 325 330 332 330 328 329 329 328 324 329 327 328 326 324 323 323 322 320 319 319 320 319 320 321 319 319 317 316 315 315 313 313 310 310 309 308 309 309 309 307 306 305 304 304 305 305 305 308 308 312 314 315 313 314 314 314
324 322 323 325 325 327 328 329 329 328 329 327 328 328 327 327 329 327 327 325 324 324 324 322 320 319 320 321 320 319 320 318 317 317 314 315 315 312 311 312 312 309 308 311 312 310 310 309 307 303 305 306 302 303 306 306 306 312 314 313 314 315 315
327 327 327 325 326 333 330 328 328 328 328 328 327 325 325 326 327 327 327 326 325 323 323 321 319 319 319 321 321 318 319 319 319 318 316 316 316 316 314 312 310 309 309 313 312 311 310 308 305 304 304 304 304 303 305 304 306 308 309 314 315 315 314
331 330 329 329 330 327 332 327 328 330 328 327 327 331 330 324 326 328 327 326 324 325 324 321 319 319 320 322 320 319 319 320 320 318 317 316 315 314 314 313 312 310 311 313 312 312 312 311 309 307 305 301 301 303 301 302 304 307 306 310 314 314 314
329 330 330 331 332 329 325 325 327 328 327 329 329 329 327 328 328 327 326 325 325 324 324 321 319 318 320 320 320 321 318 321 317 316 316 317 316 315 314 313 312 310 312 313 312 312 313 313 311 310 308 304 301 298 300 299 301 303 309 307 311 314 314
326 326 328 328 326 329 327 328 328 326 330 330 327 328 326 328 328 327 326 324 323 324 324 322 319 319 320 321 319 320 317 321 318 317 316 316 314 315 314 312 311 312 313 314 314 314 313 313 313 312 310 307 305 301 298 298 300 302 306 310 307 311 314
326 325 326 323 324 328 329 328 327 326 325 325 326 324 326 327 327 323 323 322 322 323 323 322 320 319 319 320 320 321 319 320 318 318 318 315 315 314 314 312 311 311 315 315 313 314 313 313 313 312 310 310 309 304 302 299 300 305 305 310 310 309 312
326 326 327 326 328 323 322 325 324 324 325 327 328 329 328 325 324 324 323 322 323 321 323 322 321 318 319 320 319 321 321 318 316 314 316 314 313 314 312 310 310 310 314 314 314 314 314 314 313 312 310 310 310 308 305 304 300 304 308 306 309 313 313
326 325 325 327 327 323 321 320 322 327 327 328 328 327 325 324 324 323 323 322 321 322 322 321 319 318 319 320 320 319 320 317 313 314 314 314 313 313 312 309 309 310 313 313 312 313 313 314 314 311 311 310 309 309 308 306 303 302 309 311 311 314 311
327 327 326 324 325 324 325 326 326 330 331 331 328 325 323 323 322 322 320 321 319 320 319 320 319 319 317 315 318 321 318 315 312 315 314 313 312 311 311 309 308 311 310 311 312 313 312 311 312 311 311 310 309 309 308 306 303 303 307 312 312 310 312
327 326 327 326 325 324 325 327 328 327 326 325 327 324 323 322 322 322 320 318 318 318 319 317 320 317 314 314 316 319 319 316 315 313 315 312 311 312 309 310 307 309 312 311 311 310 311 311 310 310 309 310 309 309 310 307 305 304 303 309 309 312 312
327 326 326 327 325 323 325 326 325 325 324 324 324 323 321 322 321 320 319 320 318 317 317 319 317 314 312 311 312 315 317 313 314 313 313 312 310 308 307 309 308 309 311 310 311 312 313 311 311 310 310 310 309 309 309 309 307 304 304 306 309 309 310
327 327 326 326 326 326 326 327 326 325 325 326 322 325 324 322 321 320 319 318 316 318 316 318 316 312 314 313 311 309 311 315 316 315 313 313 312 309 306 307 310 309 310 310 310 310 310 310 310 310 310 309 309 309 308 309 309 307 307 306 308 308 310
328 327 326 326 326 326 326 325 325 323 324 324 323 323 321 321 322 320 318 317 316 315 315 314 316 316 314 315 312 312 312 312 316 313 314 313 311 311 307 306 310 308 308 308 308 308 309 308 309 310 309 307 307 308 309 310 309 309 307 306 307 310 310
330 328 327 326 326 325 325 325 325 325 323 322 323 323 321 320 319 318 318 317 315 314 316 318 315 311 310 310 314 314 313 311 313 312 315 314 311 311 310 306 310 310 309 307 307 308 308 307 308 309 307 306 306 307 309 309 309 309 309 308 307 307 308
332 330 329 328 328 326 324 324 323 322 324 324 322 321 320 320 321 319 318 318 316 316 315 314 314 313 311 309 307 308 312 313 313 314 316 314 312 312 310 307 310 310 307 307 307 308 307 307 308 308 307 306 307 307 309 308 309 309 308 307 307 307 307
334 334 332 330 328 327 326 325 324 324 324 322 322 320 320 320 320 320 319 318 317 320 314 314 314 312 313 312 308 308 312 314 312 312 313 314 313 311 309 309 308 306 307 308 310 309 308 306 308 307 307 307 307 308 309 309 308 308 307 307 306 306 307
336 335 333 331 329 327 326 326 326 325 325 324 323 321 321 320 321 318 317 319 317 316 313 313 312 311 310 309 310 309 309 308 310 314 314 313 312 311 310 310 307 306 308 308 310 310 308 308 309 307 307 307 308 308 309 309 308 308 307 307 306 307 306
335 335 334 332 329 328 326 327 327 326 325 324 324 324 322 321 319 318 317 316 318 315 314 314 315 315 312 305 308 306 305 307 310 312 311 311 311 309 310 307 309 307 307 309 310 311 308 308 309 309 308 307 306 307 307 308 307 307 307 306 305 305 305
335 335 334 333 333 330 328 327 327 326 326 326 325 324 323 321 320 319 318 317 317 316 315 314 309 299 299 303 306 304 304 303 307 311 312 310 309 309 311 308 309 309 309 310 311 311 308 308 308 308 308 310 309 307 307 306 307 308 307 306 306 306 305
333 334 334 332 331 331 332 329 327 326 326 327 327 326 325 322 322 321 320 318 319 316 316 314 297 296 296 297 303 305 305 304 305 308 310 309 308 311 311 311 311 309 310 309 311 312 310 308 304 305 306 307 305 302 299 304 307 307 307 306 306 306 306
333 335 332 333 334 335 332 329 329 329 327 327 327 327 325 324 323 323 321 319 316 316 315 306 297 297 295 294 296 302 302 302 302 304 308 310 309 311 311 312 311 309 305 308 309 311 310 309 307 308 309 309 308 304 296 294 300 309 309 307 306 306 307
330 331 333 332 332 330 329 328 330 330 329 329 328 326 326 325 325 324 322 317 316 315 315 303 296 296 294 292 292 296 300 301 301 302 305 308 309 311 311 309 309 309 311 309 308 309 309 311 312 307 307 309 311 311 305 299 306 307 311 309 307 306 308
328 329 329 329 329 328 329 329 329 330 330 329 327 326 326 325 324 323 322 318 316 315 315 300 295 295 293 292 291 296 301 300 299 301 305 308 310 311 308 307 310 310 309 305 305 305 305 306 307 311 310 308 311 310 309 309 309 311 311 311 309 308 307
325 325 325 325 325 325 327 329 329 332 331 331 330 329 327 326 325 325 323 319 317 316 319 296 294 294 292 291 292 298 299 299 300 302 305 308 310 311 310 309 310 309 308 302 299 296 299 305 307 308 309 310 309 308 307 307 296 300 306 308 309 309 307
323 325 325 325 324 326 326 326 326 329 328 327 326 325 324 325 325 324 321 320 318 316 320 298 294 293 292 291 295 301 301 301 299 299 302 307 311 308 309 309 309 309 307 300 296 292 293 305 307 307 308 309 309 307 307 307 301 296 295 296 293 294 293
321 322 322 322 323 324 324 325 326 326 325 325 324 324 324 323 324 324 322 320 319 317 318 303 294 294 292 291 299 301 302 299 299 301 304 308 311 310 308 309 306 303 301 300 292 292 292 303 306 308 306 310 308 308 308 309 309 308 296 294 294 293 293
321 321 320 321 322 322 323 324 324 325 325 324 323 324 323 322 322 324 323 321 322 319 318 307 294 294 292 292 299 303 301 298 301 304 306 308 308 306 303 306 304 303 301 297 291 292 292 301 305 305 307 308 307 307 309 310 310 309 309 309 309 309 309
323 322 320 321 324 322 322 321 321 322 322 322 321 321 322 322 321 322 323 322 321 319 318 311 298 294 292 292 298 305 301 301 303 304 306 306 305 303 302 303 302 292 292 291 292 291 292 292 302 306 308 305 306 305 308 310 311 312 311 310 310 312 311
322 322 322 323 321 320 320 320 321 321 321 321 321 321 321 322 321 321 323 322 320 319 318 314 299 293 293 293 295 301 301 300 302 304 305 305 304 302 301 302 301 296 292 291 291 291 292 292 294 306 306 305 302 300 299 310 310 311 311 311 310 310 310
322 321 323 321 320 317 318 319 320 321 321 320 320 320 320 320 320 321 322 323 321 320 320 316 302 294 293 293 294 297 301 300 305 307 306 305 303 302 302 302 299 297 292 292 291 291 291 292 291 307 302 293 291 291 302 309 310 310 309 309 309 307 307
321 316 318 320 315 314 315 317 320 320 320 320 319 318 318 318 318 319 320 321 321 321 320 316 303 298 294 293 293 295 296 298 297 310 307 306 303 303 304 302 300 297 291 291 292 291 291 291 299 302 290 290 292 291 301 307 310 310 309 307 307 307 307
316 317 318 316 314 314 314 315 316 316 316 318 317 316 316 317 317 316 315 318 320 320 320 318 305 300 297 293 293 293 294 294 297 304 306 305 304 304 301 299 298 293 291 291 291 292 291 292 294 292 292 292 292 299 304 306 308 308 307 306 306 305 305
Wind_Speed
3 3 2 3 2 0 2 2 3 3 5 2 1 2 2 3 2 2 3 3 3 2 2 3 3 2 3 2 5 1 1 0 1 2 3 4 5 4 5 7 6 5 7 5 4 5 6 9 12 8 6 8 8 7 9 6 3 3 3 5 7 8 7
4 3 2 2 1 3 2 1 2 4 3 3 2 2 2 2 2 3 2 5 2 3 2 4 3 4 3 2 3 5 1 3 1 1 1 4 4 5 6 5 7 5 6 5 5 5 6 8 8 10 12 10 7 7 9 4 1 2 2 3 5 8 7
4 2 2 2 2 2 3 4 4 3 4 2 1 1 3 2 4 1 2 4 3 2 2 3 3 3 3 3 3 5 4 4 0 0 1 2 2 3 4 6 5 5 4 4 3 6 5 5 7 9 9 10 12 9 8 6 2 2 2 5 6 7 8
4 2 2 2 2 2 3 2 3 3 2 2 2 2 2 3 2 2 2 3 3 2 3 3 3 3 3 3 4 4 1 6 2 3 3 3 3 3 4 4 4 5 5 5 5 5 5 6 7 7 8 8 9 9 8 9 1 2 6 5 6 8 7
5 4 3 4 4 5 4 5 1 1 1 4 3 2 2 4 1 1 1 2 3 3 3 3 3 3 3 3 5 6 1 4 2 2 2 3 2 3 3 6 4 5 6 4 4 4 6 6 6 7 7 8 6 6 7 7 5 5 4 6 6 7 7
3 4 4 2 2 2 2 2 2 3 3 3 4 2 2 3 2 2 1 1 2 2 2 3 3 3 3 3 4 6 2 3 3 3 4 4 3 3 4 5 4 5 6 5 3 5 5 5 6 7 7 6 8 9 6 5 5 3 4 6 6 8 6
4 2 2 3 3 0 1 1 2 1 2 1 1 3 4 2 2 1 1 1 2 3 2 3 3 3 3 3 2 6 3 3 2 3 4 4 1 1 3 4 4 6 6 4 4 5 4 5 6 7 8 6 6 8 5 5 6 4 4 4 5 7 8
2 3 3 2 2 2 1 2 3 2 2 2 3 1 1 1 2 2 1 2 2 2 2 2 3 3 4 2 3 5 4 3 2 3 4 3 4 3 3 3 4 5 6 4 5 5 5 4 5 5 6 9 8 7 7 6 7 4 8 5 5 7 7
3 2 2 3 2 2 3 3 3 4 3 2 2 2 2 2 1 2 2 2 2 2 2 2 3 3 3 3 3 3 4 2 3 4 4 2 3 3 3 3 3 4 5 4 4 5 5 5 4 4 5 5 8 9 7 7 6 4 8 7 3 5 9
4 4 3 3 4 3 3 3 3 3 2 2 2 2 3 2 1 2 1 1 3 2 1 1 2 3 3 2 4 3 5 1 2 3 5 3 3 3 3 3 5 4 4 2 3 4 5 5 5 4 3 4 5 6 7 8 7 6 6 6 6 4 9
4 5 4 5 4 4 3 3 3 3 3 3 3 3 3 2 2 3 3 3 3 2 2 2 2 2 3 3 2 2 4 2 2 2 2 3 2 2 2 3 5 5 1 2 4 4 4 5 4 5 5 4 4 6 5 6 7 3 6 5 6 4 6
5 4 4 4 3 5 4 5 6 5 4 3 3 2 2 3 3 3 4 3 3 3 2 2 2 2 3 2 3 2 2 2 2 3 2 2 2 2 2 3 5 6 1 2 3 3 4 4 4 5 6 5 5 4 5 5 7 4 4 4 4 6 4
6 5 4 3 3 5 5 5 4 5 6 4 3 3 3 4 4 4 3 3 3 3 2 1 2 2 2 2 2 3 0 2 3 2 2 2 2 2 2 3 5 6 2 3 3 4 4 4 3 5 5 5 5 5 2 3 5 7 4 4 2 5 10
5 4 4 5 4 4 4 4 3 2 2 2 3 3 4 5 5 4 4 3 3 3 3 2 2 2 2 4 4 1 0 2 3 2 2 2 2 2 2 3 6 4 4 3 4 3 3 4 4 5 5 5 5 6 3 3 5 7 4 5 2 5 6
5 4 4 4 4 5 4 3 3 3 3 3 2 3 5 4 3 4 4 4 3 3 2 2 0 1 2 3 3 1 1 2 2 2 2 2 2 2 3 3 5 6 2 3 3 3 3 4 4 4 5 5 6 6 3 4 3 4 7 5 5 2 6
5 5 5 4 5 6 4 4 4 4 4 4 4 4 5 5 5 4 4 3 4 4 3 2 1 0 3 4 4 2 1 3 2 2 2 1 2 3 3 3 3 5 4 3 3 3 3 4 4 4 6 5 6 5 4 4 2 5 5 3 4 4 4
5 6 6 5 5 5 4 3 3 4 4 3 5 4 5 5 5 4 4 5 4 2 3 3 3 4 2 3 3 4 3 2 1 1 2 1 2 2 3 3 2 4 5 3 3 4 4 5 5 5 6 5 4 3 4 4 3 3 2 5 4 6 3
6 6 6 5 6 6 5 5 4 5 4 5 6 5 5 5 5 6 5 5 6 5 6 5 2 2 1 1 1 2 5 2 0 2 1 1 3 1 2 4 2 3 5 3 4 5 5 6 6 6 5 6 6 6 6 5 4 4 3 4 4 3 2
6 7 6 6 6 5 5 5 5 5 6 6 5 5 5 5 5 7 8 7 6 5 3 2 2 2 2 3 2 4 4 5 2 2 1 1 2 1 2 4 2 2 3 4 4 4 5 5 5 6 6 7 7 6 6 6 4 3 3 1 3 4 5
6 6 6 5 5 5 6 6 6 6 5 6 6 6 6 6 5 6 6 5 4 4 4 3 5 2 1 4 7 5 4 5 3 3 2 1 2 2 2 3 0 2 4 3 3 3 4 4 5 5 6 6 6 6 5 6 5 5 5 5 4 5 4
6 5 4 5 5 5 6 6 6 6 5 6 6 7 7 6 5 6 6 6 4 1 6 5 1 3 2 1 6 6 3 2 3 3 2 2 1 1 2 2 3 4 3 2 2 2 2 3 4 3 5 6 6 6 5 5 5 4 4 4 5 5 4
5 6 6 5 5 5 6 6 6 6 6 6 6 6 6 6 5 7 9 6 5 4 5 5 5 4 3 3 0 2 3 4 4 2 1 1 1 1 2 0 5 3 1 2 2 1 1 2 3 3 4 5 6 5 5 4 4 4 4 4 5 4 4
5 5 6 5 7 7 7 6 6 6 6 7 6 6 7 5 6 7 7 6 3 5 6 3 5 8 7 4 2 1 2 5 4 2 2 1 1 3 1 2 5 6 3 4 4 2 3 1 3 1 2 4 5 5 5 5 5 5 4 4 5 6 6
5 4 5 5 4 5 7 6 6 7 7 7 6 6 5 5 6 6 7 5 4 4 4 4 9 9 8 7 3 2 2 4 6 4 1 2 2 4 2 1 5 6 4 5 5 6 4 4 3 3 3 4 4 5 4 5 4 5 5 4 5 6 6
2 7 8 7 7 7 4 5 6 7 7 7 6 5 5 5 5 5 4 5 2 2 3 8 12 11 10 7 4 3 3 3 4 5 3 2 3 2 1 1 1 2 5 2 1 5 6 5 3 6 7 5 3 4 5 3 3 5 5 5 5 6 6
4 3 5 4 4 3 5 7 7 5 5 6 4 4 6 5 6 6 5 3 3 3 3 11 14 14 11 12 11 7 3 2 5 6 5 4 4 0 1 0 1 2 2 9 2 2 4 4 5 7 7 6 4 4 5 7 3 2 3 4 4 5 6
4 4 3 4 4 4 5 6 5 5 5 5 4 4 5 7 6 6 5 6 6 5 3 10 13 13 11 11 12 8 4 2 4 5 7 6 4 1 1 2 2 2 0 6 4 3 3 2 2 4 3 3 3 2 4 8 3 3 5 4 4 5 5
4 4 4 5 4 5 6 6 5 4 4 4 5 5 6 6 5 5 4 6 5 4 3 13 14 13 11 11 11 8 4 4 2 6 6 7 4 1 1 1 1 2 3 5 3 2 3 3 3 2 4 6 3 2 3 5 6 4 4 4 4 4 3
6 6 7 6 7 7 6 4 4 3 3 3 3 3 4 4 4 2 3 5 4 6 5 14 14 13 12 11 11 5 5 4 4 4 6 9 4 1 1 2 1 1 3 5 4 7 4 2 3 4 3 6 4 3 3 3 5 6 6 4 3 2 2
7 6 6 6 7 6 6 7 6 3 3 3 4 4 4 4 4 3 6 6 6 6 5 11 14 14 13 13 9 4 4 3 4 5 5 7 2 3 2 0 2 4 5 5 3 7 8 5 3 3 5 4 4 4 2 2 2 4 6 6 5 4 3
8 9 8 8 8 7 7 6 6 5 5 4 4 5 5 5 4 3 5 6 7 7 6 11 16 15 15 15 10 6 5 4 5 6 6 4 1 0 5 10 6 6 6 4 5 8 9 6 3 3 6 1 8 4 4 3 4 1 1 3 4 5 4
8 8 8 8 7 7 6 6 7 7 7 7 6 5 4 4 5 3 5 7 9 8 4 9 16 16 16 16 11 6 5 4 5 4 5 4 4 3 3 7 9 6 5 4 7 8 9 6 3 5 4 5 3 4 4 4 3 2 1 1 2 2 1
6 7 7 7 5 6 7 7 7 7 7 7 7 6 4 3 5 4 2 6 6 7 6 7 12 16 16 16 14 8 5 4 4 4 4 4 5 4 5 5 5 6 7 5 7 6 6 5 3 4 4 6 5 5 4 2 3 0 0 1 2 3 2
6 6 6 3 5 6 6 6 6 6 6 6 7 7 6 4 4 4 2 3 4 5 6 6 10 17 17 17 15 10 6 5 4 3 4 5 6 6 5 5 4 5 6 5 5 5 5 7 6 3 3 2 2 3 5 1 3 4 1 2 2 4 6
6 6 4 4 4 6 6 7 6 6 5 5 7 7 7 6 5 3 3 3 4 5 6 9 8 15 18 17 16 14 6 4 1 1 2 5 5 6 7 6 5 5 7 3 3 3 5 6 8 4 3 1 2 2 4 1 0 2 3 3 1 4 4
6 7 5 4 6 8 8 7 6 5 6 5 5 5 6 7 6 4 3 4 3 4 5 7 14 12 15 16 17 14 11 7 4 1 1 1 5 6 7 7 6 8 6 5 2 2 4 7 6 0 5 4 5 6 4 2 2 3 0 3 3 2 2
8 7 6 6 7 8 8 7 7 6 6 6 4 5 5 5 4 4 5 3 2 3 3 4 11 16 15 18 16 15 13 10 8 3 2 4 4 8 8 8 7 8 5 4 2 2 3 4 5 8 9 5 6 5 2 4 2 3 2 2 3 4 4
Wind_Direction
265 249 235 108 135 103 305 266 274 262 260 207 77 300 352 320 356 338 271 304 273 314 348 325 308 352 340 338 311 336 53 224 349 343 323 326 339 320 345 328 339 349 340 338 351 340 321 324 330 331 326 332 335 335 321 328 11 13 359 351 341 340 336
271 266 250 243 144 165 209 255 265 291 317 324 5 305 268 339 312 258 315 268 8 302 31 329 339 327 309 333 325 322 62 286 175 205 20 336 332 341 338 339 323 360 339 344 334 342 340 330 324 337 334 333 342 337 325 347 5 54 17 349 359 343 336
229 243 313 307 181 163 228 209 205 213 273 312 273 360 4 302 271 328 323 344 327 354 22 318 308 331 334 353 335 303 326 309 347 97 62 325 321 342 333 316 321 351 337 322 338 347 338 335 329 331 331 340 340 335 324 339 352 76 44 15 7 352 345
261 255 187 243 253 223 238 257 180 194 211 323 349 266 268 280 301 2 330 316 319 5 350 327 339 330 339 328 294 280 336 315 5 23 21 327 319 326 301 320 336 356 314 316 340 346 335 329 334 331 331 340 322 326 331 323 346 67 59 33 7 2 339
259 265 204 214 258 264 203 196 230 67 179 222 210 224 219 267 310 311 277 312 331 357 319 322 328 327 308 325 299 291 96 292 56 27 336 289 321 316 355 354 334 339 312 316 345 336 329 329 330 328 329 327 325 332 313 329 328 69 67 34 12 2 335
260 270 299 280 229 243 329 339 158 193 222 214 221 234 263 224 212 218 304 322 318 295 313 317 324 320 311 305 296 307 29 329 41 13 311 301 30 348 20 332 339 337 314 313 345 334 320 325 332 331 337 335 340 329 321 341 327 51 82 43 12 1 335
215 255 276 295 302 100 67 299 306 269 262 271 296 248 229 294 26 339 315 296 309 297 315 337 317 311 293 275 304 299 6 332 8 6 312 314 344 345 30 325 353 315 294 316 354 332 332 337 338 339 333 341 340 326 322 334 326 4 33 54 22 6 341
238 184 218 237 280 311 257 238 204 232 239 259 275 6 7 28 253 239 279 323 271 295 330 321 314 293 291 334 338 308 330 289 26 337 277 317 346 8 16 347 332 304 301 347 349 323 320 323 324 338 346 337 340 333 342 342 338 24 24 6 24 1 336
255 270 231 200 208 204 283 274 256 190 215 249 241 279 255 234 261 289 296 275 305 303 318 315 315 308 307 310 299 300 300 315 43 311 304 338 354 19 4 331 312 300 303 336 341 323 319 319 326 337 347 338 337 337 346 336 343 349 31 5 356 14 344
220 234 235 242 225 210 207 250 283 302 269 177 223 218 235 231 246 259 252 293 279 265 251 280 280 296 300 315 293 317 293 6 43 311 324 10 356 19 343 325 287 273 293 342 330 324 320 318 328 334 334 334 335 329 332 330 336 344 6 13 359 340 341
231 218 219 237 240 204 202 210 242 244 249 244 216 227 257 244 228 243 217 231 243 249 240 238 275 289 291 265 286 297 302 10 351 308 305 21 347 358 319 309 301 280 268 353 330 312 314 313 327 334 326 334 336 314 316 327 333 5 349 5 13 321 310
221 243 229 223 238 254 241 201 201 215 226 243 250 233 231 237 232 230 226 233 232 251 249 230 232 249 263 277 253 273 294 360 329 294 23 10 340 323 333 319 305 293 59 8 324 315 317 313 329 338 329 327 316 310 322 347 331 344 346 352 319 297 318
217 220 230 232 234 232 249 266 249 204 199 204 217 245 247 240 235 242 234 222 234 228 241 230 227 275 288 275 292 262 51 324 315 324 28 335 329 330 348 317 293 292 48 22 332 316 318 318 357 340 318 322 317 313 337 345 332 329 352 23 315 338 355
214 217 222 224 225 240 246 256 274 319 312 205 199 228 244 244 248 250 254 242 249 245 226 228 201 196 262 267 253 241 39 324 306 344 16 324 347 331 342 302 297 313 45 350 308 304 343 337 348 339 324 323 320 315 332 357 351 334 340 20 350 22 315
202 218 223 228 231 238 244 237 235 254 254 279 266 249 245 252 250 239 239 261 269 272 264 243 184 94 248 276 299 264 182 287 306 320 317 320 330 14 300 311 313 318 32 329 317 341 356 341 343 338 321 327 322 312 352 357 5 342 334 14 347 21 357
197 207 218 221 229 238 238 230 233 227 229 228 232 238 249 248 247 249 247 230 230 234 230 265 124 239 272 263 262 291 256 216 241 256 270 6 339 346 301 341 316 325 334 330 331 352 354 348 331 332 317 322 315 335 350 348 17 350 343 346 301 17 7
206 206 213 213 225 232 237 246 244 240 242 237 247 233 227 236 241 240 240 239 242 249 242 198 182 187 264 316 353 331 322 328 268 299 291 45 329 313 335 309 320 326 319 331 359 353 0 348 337 336 324 325 319 351 335 342 6 359 353 333 6 359 3
208 213 214 215 219 219 224 234 237 248 245 232 233 238 248 240 226 239 243 235 225 219 230 220 209 153 178 208 197 250 268 264 308 285 282 56 310 343 328 298 317 342 320 349 19 357 360 0 346 325 348 344 343 350 336 360 355 1 359 347 9 341 3
211 215 219 219 223 224 229 223 228 226 234 246 244 240 243 243 247 236 226 229 237 238 231 163 139 98 41 334 282 176 256 274 274 271 300 357 292 314 279 290 7 337 337 15 11 4 359 351 341 335 9 348 346 343 343 354 342 349 353 350 10 5 20
215 221 219 220 213 225 226 229 233 238 229 230 235 240 244 247 235 249 263 246 229 234 227 122 83 105 152 239 271 271 220 218 223 222 215 211 245 253 279 292 50 35 23 16 10 11 352 347 334 346 6 349 340 330 2 352 345 5 358 22 34 22 35
216 221 225 215 226 228 229 229 227 232 236 238 240 241 244 241 237 235 238 232 227 107 78 79 174 200 177 222 255 250 256 259 240 254 225 216 271 284 271 250 90 57 34 19 18 360 5 333 325 353 356 341 339 340 15 349 351 359 14 18 25 25 31
204 212 205 219 228 228 233 239 239 233 227 234 237 244 248 235 249 250 247 220 189 135 123 165 189 205 200 215 308 337 310 272 262 243 164 203 226 275 275 266 99 93 106 262 270 215 350 304 335 348 348 345 341 342 17 351 355 1 17 15 35 32 24
240 223 216 214 211 216 224 230 233 238 245 242 237 230 230 231 234 255 257 247 182 145 159 193 209 187 192 181 170 47 348 309 284 248 229 142 256 248 235 276 123 132 151 245 249 176 180 343 352 6 309 352 345 350 14 3 1 16 12 21 33 38 23
241 255 267 231 254 232 222 228 229 235 241 239 240 248 248 241 235 243 256 256 148 170 167 160 154 154 164 166 140 78 341 293 304 293 225 199 225 245 213 242 129 168 174 226 240 181 181 156 256 285 317 334 357 341 5 14 3 25 12 20 30 41 30
211 262 233 238 243 255 254 241 239 236 237 237 229 234 247 252 254 253 245 250 148 166 182 155 167 162 182 148 131 94 270 283 292 298 268 250 269 241 216 144 210 210 196 166 216 167 186 163 198 264 278 284 323 354 318 8 4 18 23 28 36 37 31
293 304 300 304 303 268 237 245 254 248 246 245 235 231 232 237 243 238 235 206 148 208 242 173 180 175 179 160 140 135 229 284 291 298 304 270 251 154 24 330 232 238 143 166 195 90 154 175 187 229 248 278 263 252 286 300 292 13 22 44 38 44 38
287 274 286 278 266 272 279 285 271 250 258 262 249 252 252 245 244 235 213 159 183 197 228 165 175 177 173 161 148 146 160 298 294 292 295 286 263 200 176 155 264 224 79 68 52 53 36 345 179 197 225 249 264 229 232 249 314 345 56 57 50 47 30
283 267 251 255 253 251 251 254 268 271 259 264 269 259 256 258 255 244 197 167 194 196 208 166 178 177 172 159 145 150 162 148 288 296 290 287 285 84 347 314 300 319 75 89 51 50 55 352 318 277 210 197 249 67 39 30 11 352 50 54 56 59 43
343 343 340 345 344 335 338 340 332 334 307 283 276 277 279 273 270 209 170 157 191 211 183 167 176 173 165 155 152 156 172 171 183 235 264 267 249 121 234 235 263 266 70 87 63 56 49 335 303 295 311 135 122 89 58 52 28 19 35 40 45 67 77
330 335 339 339 330 337 340 335 323 311 292 293 290 286 279 264 268 182 179 188 200 211 188 177 172 171 163 158 160 160 175 160 191 214 241 265 232 159 195 105 28 356 73 59 29 49 23 351 309 320 308 140 122 128 120 99 51 24 27 29 4 16 23
350 360 351 342 347 340 328 313 317 327 310 293 277 280 284 277 266 211 192 206 207 210 206 171 174 171 163 166 169 166 169 188 207 210 223 242 237 86 89 85 58 57 71 61 13 36 15 353 322 342 344 300 147 144 146 163 140 144 243 273 282 277 273
359 352 343 336 325 321 329 341 332 325 317 309 290 273 263 280 283 239 192 206 216 220 216 171 179 171 168 171 176 171 173 193 213 215 221 195 182 119 93 81 82 81 80 72 44 31 19 4 349 339 328 308 163 126 139 169 135 166 217 211 227 260 332
351 340 324 311 330 354 343 326 324 316 312 307 306 309 307 300 301 298 242 205 208 201 201 148 175 171 171 177 182 173 170 185 208 221 204 195 147 123 120 107 95 90 74 54 50 26 15 354 342 341 347 21 37 55 2 75 111 82 235 306 84 109 47
332 317 302 333 2 334 320 312 308 305 309 314 316 314 301 291 283 282 262 185 188 195 202 163 169 174 176 180 184 180 170 189 197 216 224 212 164 143 143 132 127 108 99 36 29 34 11 338 332 333 16 53 50 306 299 25 104 129 171 207 176 131 136
306 295 326 358 342 324 310 305 299 299 301 297 302 304 309 298 279 264 262 238 206 205 200 178 157 183 180 181 184 184 166 184 171 269 277 234 147 143 146 139 136 142 116 130 300 27 359 339 322 330 351 241 182 19 334 23 284 178 225 200 175 106 86
313 335 335 350 350 321 308 297 292 296 289 288 292 302 307 307 301 288 257 233 201 191 182 177 163 175 186 182 183 184 169 168 94 105 38 333 127 123 110 125 143 146 139 178 221 350 0 335 312 139 280 332 357 336 306 296 177 136 51 71 82 101 112
341 328 338 351 331 309 307 310 314 314 307 302 307 302 293 292 300 317 320 303 255 203 176 168 174 173 178 184 181 181 176 151 106 108 135 90 79 106 118 124 143 141 150 190 178 19 357 325 312 308 309 338 337 319 327 295 145 141 119 100 87 69 51